Regional Weather Roundup
Issued by NWS

Home | Current Version | Previous Version | Graphics & Text | Print | Product List | Glossary On
Versions: 1 2 3 4 5 6 7 8 9 10 11 12 13 14 15 16 17 18 19 20 21 22 23 24 25 26 27 28 29 30 31 32 33 34 35 36 37 38 39 40 41 42 43 44 45 46 47 48 49 50
726
ASUS43 KOAX 130102
RWRNE

WEATHER ROUNDUP FOR NEBRASKA
NATIONAL WEATHER SERVICE OMAHA NE
700 PM CST TUE DEC 12 2017

NOTES: SATELLITE DATA IS BEING USED TO AUGMENT CLOUD COVER ABOVE
       12000 FEET.
       "FAIR" INDICATES FEW OR NO CLOUDS BELOW 12,000 FEET WITH NO
       SIGNIFICANT WEATHER AND/OR OBSTRUCTIONS TO VISIBILITY.


NEZ001>004-019>022-054>056-130200-
NEBRASKA PANHANDLE

CITY           SKY/WX    TMP DP  RH WIND       PRES   REMARKS
SCOTTSBLUFF    CLEAR     49  15  25 W12       30.04F
ALLIANCE       CLEAR     32  16  51 W9        29.99F WCI  24
CHADRON        CLOUDY    42  18  37 CALM      29.96F
GORDON         FAIR      39  21  48 CALM      29.93F
KIMBALL        CLEAR     44  10  24 W8        30.09F
SIDNEY         CLEAR     47  13  25 W14       30.05F
$$

NEZ057>060-069>072-079>082-130200-
SOUTHWEST NEBRASKA

CITY           SKY/WX    TMP DP  RH WIND       PRES   REMARKS
NORTH PLATTE   CLEAR     40  20  44 W6        29.97F
IMPERIAL       CLEAR     43  18  36 W8        30.02F
LEXINGTON      CLEAR     44  21  40 SW5       29.96F
MCCOOK         CLEAR     44  20  38 SW10      29.99F
OGALLALA       CLEAR     39  15  37 W6        30.00S
$$

NEZ005>010-023>029-035>040-094-130200-
NORTH CENTRAL NEBRASKA

CITY           SKY/WX    TMP DP  RH WIND       PRES   REMARKS
VALENTINE      CLEAR     45  19  35 W5        29.89F
AINSWORTH      CLEAR     42  23  46 W9        29.88F
BROKEN BOW     CLEAR     35  19  52 W5        29.94F WCI  31
ORD            CLEAR     40  17  39 SW8       29.91F WCI  34
THEDFORD       CLEAR     46  19  34 W8        29.93F
$$

NEZ041-046>049-061>064-073>077-083>087-130200-
SOUTH CENTRAL NEBRASKA

CITY           SKY/WX    TMP DP  RH WIND       PRES   REMARKS
GRAND ISLAND   CLEAR     43  20  39 SW14      29.97F
AURORA         CLEAR     39  19  44 SW13      29.96F WCI  31
HASTINGS       CLEAR     41  18  39 SW5       29.99F
HEBRON         CLEAR     41  25  52 SW10      30.01F
HOLDREGE       CLOUDY    40  21  47 SW6       29.98F
KEARNEY        CLEAR     41  21  44 SW10      29.97F
$$

NEZ011>018-030>034-042>045-130200-
NORTHEAST NEBRASKA

CITY           SKY/WX    TMP DP  RH WIND       PRES   REMARKS
NORFOLK        CLEAR     41  22  46 SW13      29.88F
ALBION         CLEAR     41  19  42 SE5       29.92F
BLAIR          CLEAR     37  28  70 S9        29.94F WCI  30
TEKAMAH        CLEAR     29  20  69 S9        29.93F WCI  20
WAYNE          CLEAR     32  21  65 S7        29.90F WCI  26
$$

NEZ050>053-065>068-078-088>093-130200-
SOUTHEAST NEBRASKA

CITY           SKY/WX    TMP DP  RH WIND       PRES   REMARKS
LINCOLN        CLEAR     39  24  55 SW6       29.98F WCI  35
OMAHA EPPLEY   CLEAR     33  24  69 SE9       29.97F WCI  25
BEATRICE       CLEAR     38  26  62 SW9       30.00F WCI  32
FALLS CITY     CLEAR     36  26  67 S9        30.03F WCI  29
NEBRASKA CITY  CLEAR     32  27  83 S8        29.99F WCI  25
$$

NEZ044-045-051>053-067-130200-
OMAHA AREA

CITY           SKY/WX    TMP DP  RH WIND       PRES   REMARKS
OMAHA EPPLEY   CLEAR     33  24  69 SE9       29.97F WCI  25
BLAIR          CLEAR     37  28  70 S9        29.94F WCI  30
MILLARD        CLEAR     39  28  63 S5        29.96F
OFFUTT AFB     CLEAR     34  26  71 S7        29.97F WCI  28
WAHOO          FAIR      32  23  69 S9        29.96F WCI  24
$$




USA.gov is the U.S. government's official web portal to all federal, state and local government web resources and services.